2023/02/14 00:00:00,28.8, 0.1
2023/02/14 00:10:00,28.8, 0.2
2023/02/14 00:20:00,28.8, 0.0
2023/02/14 00:30:00,28.8, 0.0
2023/02/14 00:40:00,28.7, 0.0
2023/02/14 00:50:00,28.7,-0.2
2023/02/14 01:00:00,28.7, 0.0
2023/02/14 01:10:00,28.7, 0.3
2023/02/14 01:20:00,28.8, 0.4
2023/02/14 01:30:00,28.8, 0.3
2023/02/14 01:40:00,28.8, 0.1
2023/02/14 01:50:00,28.8, 0.3
2023/02/14 02:00:00,28.8, 0.2
2023/02/14 02:10:00,28.8, 0.0
2023/02/14 02:20:00,28.8, 0.0
2023/02/14 02:30:00,29.3, 0.1
2023/02/14 02:40:00,29.1, 0.4
2023/02/14 02:50:00,29.1, 0.0
2023/02/14 03:00:00,29.2, 0.0
2023/02/14 03:10:00,29.1,-0.4
2023/02/14 03:20:00,29.1,-0.7
2023/02/14 03:30:00,29.1,-0.6
2023/02/14 03:40:00,29.1,-0.5
2023/02/14 03:50:00,29.2,-0.1
2023/02/14 04:00:00,29.3,-0.2
2023/02/14 04:10:00,29.4,-0.5
2023/02/14 04:20:00,29.6,-0.7
2023/02/14 04:30:00,29.8,-0.6
2023/02/14 04:40:00,30.1,-0.8
2023/02/14 04:50:00,30.2,-0.7
2023/02/14 05:00:00,30.2,-0.7
2023/02/14 05:10:00,30.5,-0.8
2023/02/14 05:20:00,30.5,-0.9
2023/02/14 05:30:00,30.4,-1.1
2023/02/14 05:40:00,30.5,-0.7
2023/02/14 05:50:00,31.2,-1.1
2023/02/14 06:00:00,32.0,-1.2
2023/02/14 06:10:00,32.1,-1.1
2023/02/14 06:20:00,32.0,-1.2
2023/02/14 06:30:00,32.0,-1.3
2023/02/14 06:40:00,32.0,-1.2
2023/02/14 06:50:00,32.0,-1.4
2023/02/14 07:00:00,32.0,-1.3
2023/02/14 07:10:00,32.0,-1.2
2023/02/14 07:20:00,32.0,-1.1
2023/02/14 07:30:00,32.0,-1.0
2023/02/14 07:40:00,32.0,-0.7
2023/02/14 07:50:00,31.9,-0.3
2023/02/14 08:00:00,31.9, 0.1
2023/02/14 08:10:00,32.0, 0.2
2023/02/14 08:20:00,32.0, 0.2
2023/02/14 08:30:00,31.9, 0.2
2023/02/14 08:40:00,32.0, 0.4
2023/02/14 08:50:00,31.9, 0.6
2023/02/14 09:00:00,31.9, 0.9
2023/02/14 09:10:00,31.7, 0.7
2023/02/14 09:20:00,31.6, 0.8
2023/02/14 09:30:00,31.7, 0.8
2023/02/14 09:40:00,31.7, 0.8
2023/02/14 09:50:00,31.6, 1.1
2023/02/14 10:00:00,31.5, 1.0
2023/02/14 10:10:00,31.5, 1.1
2023/02/14 10:20:00,31.4, 0.8
2023/02/14 10:30:00,31.5,-0.2
2023/02/14 10:40:00,31.7, 1.0
2023/02/14 10:50:00,31.7, 0.9
2023/02/14 11:00:00,31.5, 1.1
2023/02/14 11:10:00,31.6, 1.8
2023/02/14 11:20:00,31.5, 1.4
2023/02/14 11:30:00,31.6, 2.1
2023/02/14 11:40:00,31.6, 1.6
2023/02/14 11:50:00,31.5, 1.8
2023/02/14 12:00:00,31.6, 2.3
2023/02/14 12:10:00,31.6, 2.1
2023/02/14 12:20:00,31.5, 1.9
2023/02/14 12:30:00,31.5, 1.1
2023/02/14 12:40:00,31.2, 1.5
2023/02/14 12:50:00,31.3, 2.8
2023/02/14 13:00:00,31.2, 1.4
2023/02/14 13:10:00,31.2, 1.1
2023/02/14 13:20:00,31.2, 1.3
2023/02/14 13:30:00,31.2, 1.8
2023/02/14 13:40:00,31.2, 1.9
2023/02/14 13:50:00,31.1, 1.5
2023/02/14 14:00:00,31.0, 0.2
2023/02/14 14:10:00,31.3, 0.4
2023/02/14 14:20:00,31.3, 1.4
2023/02/14 14:30:00,31.3, 0.8
2023/02/14 14:40:00,31.3, 0.3
2023/02/14 14:50:00,31.3, 0.8
2023/02/14 15:00:00,31.2, 1.0
2023/02/14 15:10:00,31.0, 1.1
2023/02/14 15:20:00,31.0, 1.3
2023/02/14 15:30:00,31.0, 1.2
2023/02/14 15:40:00,30.9, 1.1
2023/02/14 15:50:00,30.9, 1.0
2023/02/14 16:00:00,31.0,-0.1
2023/02/14 16:10:00,31.5,-0.2
2023/02/14 16:20:00,31.5,-0.4
2023/02/14 16:30:00,31.6,-0.7
2023/02/14 16:40:00,32.0,-0.9
2023/02/14 16:50:00,32.0,-0.9
2023/02/14 17:00:00,32.1,-0.8
2023/02/14 17:10:00,32.7,-1.2
2023/02/14 17:20:00,33.2,-1.2
2023/02/14 17:30:00,33.2,-1.2
2023/02/14 17:40:00,33.2,-1.0
2023/02/14 17:50:00,33.2,-1.4
2023/02/14 18:00:00,33.7,-1.4
2023/02/14 18:10:00,33.9,-1.4
2023/02/14 18:20:00,33.9,-1.5
2023/02/14 18:30:00,34.8,-1.7
2023/02/14 18:40:00,35.4,-1.8
2023/02/14 18:50:00,35.6,-1.6
2023/02/14 19:00:00,35.8,-1.4
2023/02/14 19:10:00,35.9,-1.3
2023/02/14 19:20:00,36.3,-1.2
2023/02/14 19:30:00,36.6,-1.3
2023/02/14 19:40:00,37.1,-1.3
2023/02/14 19:50:00,37.3,-1.3
2023/02/14 20:00:00,37.4,-1.2
2023/02/14 20:10:00,37.4,-1.2
2023/02/14 20:20:00,37.4,-1.2
2023/02/14 20:30:00,37.5,-1.3
2023/02/14 20:40:00,37.5,-1.4
2023/02/14 20:50:00,37.6,-1.4
2023/02/14 21:00:00,37.6,-1.7
2023/02/14 21:10:00,37.5,-1.4
2023/02/14 21:20:00,37.3,-1.4
2023/02/14 21:30:00,37.3,-1.6
2023/02/14 21:40:00,37.3,-1.4
2023/02/14 21:50:00,37.5,-1.7
2023/02/14 22:00:00,37.5,-2.0
2023/02/14 22:10:00,37.3,-1.7
2023/02/14 22:20:00,37.3,-1.9
2023/02/14 22:30:00,37.2,-2.1
2023/02/14 22:40:00,37.1,-2.3
2023/02/14 22:50:00,37.1,-2.4
2023/02/14 23:00:00,37.3,-2.3
2023/02/14 23:10:00,37.1,-2.6
2023/02/14 23:20:00,37.1,-2.4
2023/02/14 23:30:00,37.1,-2.5
2023/02/14 23:40:00,37.0,-2.6
2023/02/14 23:50:00,37.0,-2.4
